Location: Breux
(46.3269°N, 3.2993°E)
Time: 11:51:12
(UTC+00:00)

STARLINK-1188 - Pass Details

Date: 09 April 2020
Orbit: 378 x 381 km, 53.0° (Epoch: 04 June)

Event Time Altitude Azimuth Distance (km) Brightness Sun altitude
Rises 19:54:11 0° 300° (WNW) 2,222 8.7 -14.9°
Reaches altitude 10° 19:56:13 10° 299° (WNW) 1,373 7.1 -15.2°
Maximum altitude 19:59:17 78° 213° (SSW) 384 2.8 -15.6°
Enters shadow 20:00:07 44° 135° (SE) 526 3.1 -15.8°
